Regional Weather Roundup
Issued by NWS Wakefield, VA

Home | Current Version | Previous Version | Text Only | Print | Product List | Glossary Off
Versions: 1 2 3 4 5 6 7 8 9 10 11 12 13 14 15 16 17 18 19 20 21 22 23 24 25 26 27 28 29 30 31 32 33 34 35 36 37 38 39 40 41 42 43 44 45 46 47 48 49 50

000
ASUS41 KAKQ 021514
RWRAKQ

REGIONAL WEATHER ROUNDUP
NATIONAL WEATHER SERVICE WAKEFIELD VA
1100 AM EDT WED SEP 02 2015

Note: "fair" indicates few or no clouds below 12,000 feet with no
significant weather and/or obstructions to visibility. * = Denotes
station may not report precipitation (e.g., rain,snow,etc.),
thunder or fog.

VAZ042-051-052>054-056-021600-
NORTHERN VIRGINIA

CITY           SKY/WX    TMP DP  RH WIND       PRES   REMARKS
WASH NATIONAL  CLOUDY    86  67  52 NW8       30.05S
DULLES         PTSUNNY   84  68  58 VRB6      30.06S
FORT BELVOIR   MOSUNNY   87  68  53 NW3       30.04S
QUANTICO       CLOUDY    83  70  64 E8        30.05S
FREDERICKSBRG* PTSUNNY   87  70  56 CALM      30.03S
STAFFORD*      PTSUNNY   85  69  57 NW5       30.09R
WARRENTON      MOSUNNY   87  72  61 N7        30.05S
CULPEPER*      CLOUDY    82  73  72 CALM      30.07R
MANASSAS*      SUNNY     86  70  58 N5        30.05S
LEESBURG*      PTSUNNY   84  72  65 N5        30.07S
WINCHESTER     MOSUNNY   86  66  51 CALM      30.08S
FRONT ROYAL*   FAIR      79  70  73 S3        30.08S
LURAY*         FAIR      79  68  69 CALM      30.11S
$$

VAZ048-049-060>072-079>083-021600-
CENTRAL AND SOUTH CENTRAL VIRGINIA

CITY           SKY/WX    TMP DP  RH WIND       PRES   REMARKS
RICHMOND       CLOUDY    90  68  48 CALM      30.04S
CHESTERFIELD*  FAIR      90  64  43 CALM      30.06S
PETERSBURG*    MOSUNNY   89  75  64 SW3       30.06S HX  99
HANOVER        PTSUNNY   86  72  62 CALM      30.06S
TAPPAHANNOCK*  PTSUNNY   87  67  51 CALM      30.05S
QUINTON*       FAIR      84  72  66 CALM      30.04S
CHARLOTTSVILLE CLOUDY    83  71  67 CALM      30.07S
GORDONSVILLE*  FAIR      81  70  68 CALM      30.06S
ORANGE*        CLOUDY    82  70  65 CALM      30.08R
LOUISA*        CLOUDY    84  72  65 NW3       30.06R
BUMPASS*       FAIR      83  72  67 CALM      30.06R
FARMVILLE*     MOSUNNY   89  66  46 NE7       30.05S
CREWE*         FAIR     N/A N/A N/A CALM      30.05F
FORT PICKETT*  FAIR      85  69  58 CALM      30.06S
CHASE CITY*    FAIR      88  73  60 CALM      30.07S HX  95
CLARKSVILLE*   FAIR      84  72  65 CALM      30.07S
SOUTH HILL*    SUNNY     84  72  66 CALM      30.12S
LAWRENCEVILLE* FAIR      86  72  62 SW5       30.06S
EMPORIA*       MOSUNNY   84  73  70 SE5       30.07S
$$

VAZ088>098-021600-
SOUTHEAST VIRGINIA

CITY           SKY/WX    TMP DP  RH WIND       PRES   REMARKS
NORFOLK        MOSUNNY   87  67  51 NW3       30.04S
VIRGINIA BEACH PTSUNNY   91  70  49 NW5       30.03S HX  96
NORFOLK NAVAL  PTSUNNY   86  69  56 W5        30.05F
WEST POINT*    MOSUNNY   88  69  52 W5        30.06S
SALUDA*        FAIR      85  73  68 N6        30.03S
NEWPORT NEWS   MOSUNNY   88  68  51 W8        30.04S
LANGLEY AFB    MOSUNNY   87  70  57 NW3       30.03S
FORT EUSTIS    MOSUNNY   86  70  59 SW3       30.02F
WILLIAMSBURG*  MOSUNNY   91  72  52 W8        30.05S HX  98
HR EXEC AP*      N/A     88  72  58 SW5       30.06S
FRANKLIN*      SUNNY     87  68  52 SW6       30.05S
WAKEFIELD      MOSUNNY   89  68  49 VRB5      30.05S
$$

VAZ020-022-025-037-045-021600-
WEST CENTRAL AND SOUTHWEST VIRGINIA

CITY           SKY/WX    TMP DP  RH WIND       PRES   REMARKS
STAUNTON*      MOSUNNY   80  70  70 CALM      30.14S
WAYNESBORO*    FAIR      80  70  71 MISG      30.14S
HOT SPRINGS VA MOSUNNY   73  65  76 NW5       30.26S
LYNCHBURG      SUNNY     85  67  54 CALM      30.11S
DANVILLE       SUNNY     87  70  56 VRB3      30.09S
SOUTH BOSTON*  FAIR      87  68  53 SW5       30.07S
MARTINSVILLE   SUNNY     87  65  46 NW3       30.14S
ROANOKE        SUNNY     84  67  56 N3        30.14F
BLACKSBURG     SUNNY     78  69  74 SW3       30.22F
DUBLIN*        CLOUDY    80  67  64 N3        30.21S
MARION*        SUNNY     80  66  60 CALM      30.25S
HILLSVILLE*    SUNNY     76  65  68 N5        30.22S
RICHLANDS*     FAIR      76  31  19 CALM      30.24S
WISE*          SUNNY     77  61  57 N6        30.25S
ABINGDON*      SUNNY     82  65  56 CALM      30.20F
$$

MDZ021>025-VAZ099-100-021600-
SOUTHERN MARYLAND AND THE DELMARVA PENINSULA

CITY           SKY/WX    TMP DP  RH WIND       PRES   REMARKS
PATUXENT RIVER CLOUDY    84  73  69 VRB5      30.03S
BAY BRIDGE APT   N/A     81  73  78 CALM      30.04S
LEONARDTOWN    NOT AVBL
DOVER          PTSUNNY   81  81  99 VRB1      30.02S
GEORGETOWN     MOSUNNY   85  69  58 N5        30.03F
EASTON         PTSUNNY   84  68  58 CALM      30.07S
CAMBRIDGE      PTSUNNY   84  70  61 CALM      30.02S
SALISBURY      MOSUNNY   84  72  67 CALM      30.03S
OCEAN CITY     MOSUNNY   84  73  69 SE6       30.02F
WALLOPS ISLAND MOSUNNY   85  74  69 VRB5      30.03S
ACCOMACK*      MOSUNNY  N/A N/A N/A NW7       30.03S
$$

NCZ012>017-030>032-021600-
NORTH CENTRAL AND EASTERN NORTH CAROLINA

CITY           SKY/WX    TMP DP  RH WIND       PRES   REMARKS
ROANOKE RAPIDS FAIR      86  70  58 W3        30.06S
RALEIGH        PTSUNNY   87  71  58 CALM      30.08S
ELIZABETH CITY SUNNY     86  73  65 VRB3      30.05S
AHOSKIE*       SUNNY     84  70  62 CALM      30.06S
EDENTON*       SUNNY     84  70  62 NW5       30.05F
CURRITUCK*     SUNNY     85  70  61 CALM      30.06R
KILL DEVIL HLS SUNNY     86  71  61 CALM      30.04S
MANTEO         SUNNY     82  74  77 NE3       30.05S
CAPE HATTERAS  SUNNY     83  73  72 VRB5      30.05S
TARBORO*       FAIR      87  72  62 CALM      30.07S
GOLDSBORO      MOSUNNY   86  71  62 VRB3      30.05F
WASHINGTON     SUNNY     85  71  61 CALM      30.06S
GREENVILLE     MOSUNNY   86  72  62 CALM      30.08S
NEW BERN       SUNNY     86  70  58 N6        30.07S
WILMINGTON     MOSUNNY   87  73  62 N3        30.07R
$$

VAZ048-021600-
ELSEWHERE

CITY           SKY/WX    TMP DP  RH WIND       PRES   REMARKS
HARRISBURG PA  SUNNY     83  65  54 W9        30.04F
BALTIMORE      CLOUDY    83  67  58 CALM      30.04S
ANNAPOLIS      PTSUNNY   82  75  79 CALM      30.03S HAZE
ANDREWS AFB    MOSUNNY   87  68  52 NW6       30.04S
PHILADELPHIA   PTSUNNY   83  70  64 VRB3      30.02F HAZE
HENDERSON NC   MOSUNNY   85  66  52 CALM      30.08S
GREENSBORO     PTSUNNY   86  66  51 VRB3      30.11S
ROCKY MOUNT    MOSUNNY   88  70  55 N3        30.07S
$$

VAZ100-021600-
MARINE

STATION/POSITION TIME  TEMP    WIND        PRES    WAVE   SWELL
                       AIR SEA DIR/SP/G            HT/PER HT/PER
                 (UTC) (F)     (DEG/KT/KT) (MB)    (FT/S) (FT/S)
BRANDYWINE LGT   1400   77 76   20/  2/  3 1017.2S
CAPE MAY NJ      1400   80 80  250/  1/  3 1016.6S
LEWES DE         1400   76 76   CALM  /  2 1016.8S
15NM E FENWICK I 1450   78 79  250/  6/  6 1016.6F   1/14   2/14
OCEAN-CITY-INLET 1400   80 77   20/  2/  2 1015.9F
GOOSES REEF MD   1500   80 80   20/  4/  6 1018.0S
COVE POINT MD    1400   77     360/  6/  8 1017.6F
SOLOMONS ISLAND  1400      81                N/A
BISHOPS HEAD MD  1400   79 80  280/  6/  6 1016.0F
PINEY POINT MD   1405          330/  8/  9   N/A
POTOMAC MD       1500   81 81   80/  2/  4 1015.9R
CAMBRIDGE MD     1400   79 81  340/  2/  3 1016.0F
LEWISETTA VA     1400   81 81  310/  4/  4 1016.5F
RAPPAHANNOCK LGT 1400          240/  4/  5 1017.5F
STINGRAY PT      1500   82 81  290/  4/  6 1017.4S
YORK RVR RNG VA  1400   80     270/  6/  7 1016.6F
YORKTOWN VA      1400   82 80  260/  5/  5 1016.7F
JAMESTOWN VA     1500   81 81  310/  4/  4   N/A
DOMINION TERM VA 1400   79     310/  4/  5 1017.2F
KIPTOPEKE VA     1400      79  290/  5/  7   N/A
CHES BAY BRIDGE  1400   79 79  250/  7/  8 1016.8F
CAPE HENRY VA    1400   80     280/  8/ 10   N/A
CHESAPEAKE LGHT  1400   82     280/  3/  3 1018.0F
WILLOUBY STN VA  1400   80      CALM  /  2 1018.2F
CAPE HENRY BUOY  1428      80                N/A     1/ 6
1ST LANDING BUOY 1500      80              1016.8F   1/ 4
CAPE CHARLES BUO 1426      79                N/A     1/ 9   2/ 9
OFFSHORE WE BUOY 1411      79                N/A     2/ 9   2/ 9
64NM E OF VA BCH 1450   79 80  310/  2/  2 1017.0F   2/ 7   2/ 7
DUCK PIER NC     1400   78 78   10/  3/  4 1016.8F
44100 DUCK FRF   1424      80                N/A     1/13
44056 DUCK FRF   1411      80                N/A     1/ 9
OREGON INLET NC  1400   80 81  350/  4/  7 1017.4F
HATTERAS NC      1400   79 81  340/  6/  7 1017.5F
DIAMOND SHLS NC  1450   80 84  350/  6/  8 1017.6S   2/ 9   2/ 9
CAPE LOOKOUT NC  1500   85     360/  1/  2 1017.5S
$$


USA.gov is the U.S. government's official web portal to all federal, state and local government web resources and services.